SYN002 KPHX-KLAX

Flight info

Callsign SYN002
Flight time 1h 4m
Altitude 32000
Route KEENS3 WLVRN ESTWD HLYWD1
Aircraft BCS3/M-SBDE2E3GIRWXY/LB1

Departure

Time 2026-05-04 02:07
Airport Phoenix Sky Harbor International Airport (KPHX)

Arrival

Time 2026-05-04 03:11
Airport Los Angeles International Airport (KLAX)
Time Latitude Longitude Altitude Speed Heading
2026-05-04 01:34 33.43391 -112.00828 1136 ft 0 kts 359°
2026-05-04 01:53 33.43384 -112.00828 1138 ft 2 kts 359°
2026-05-04 01:53 33.43372 -112.00828 1137 ft 2 kts 359°
2026-05-04 01:54 33.43355 -112.00829 1136 ft 2 kts 18°
2026-05-04 01:54 33.43340 -112.00838 1137 ft 2 kts 46°
2026-05-04 01:54 33.43330 -112.00855 1136 ft 2 kts 73°
2026-05-04 01:54 33.43328 -112.00862 1136 ft 0 kts 81°
2026-05-04 01:58 33.43328 -112.00859 1136 ft 0 kts 85°
2026-05-04 01:58 33.43328 -112.00858 1136 ft 0 kts 91°
2026-05-04 01:59 33.43327 -112.00855 1136 ft 0 kts 100°
2026-05-04 01:59 33.43325 -112.00851 1137 ft 1 kts 115°
2026-05-04 01:59 33.43319 -112.00841 1137 ft 3 kts 126°
2026-05-04 01:59 33.43301 -112.00811 1136 ft 6 kts 120°
2026-05-04 02:00 33.43290 -112.00751 1133 ft 9 kts 94°
2026-05-04 02:00 33.43288 -112.00660 1133 ft 13 kts 90°
2026-05-04 02:00 33.43288 -112.00536 1133 ft 17 kts 90°
2026-05-04 02:00 33.43282 -112.00385 1135 ft 20 kts 91°
2026-05-04 02:01 33.43284 -112.00221 1135 ft 20 kts 86°
2026-05-04 02:01 33.43286 -112.00130 1135 ft 1 kts 88°
2026-05-04 02:01 33.43286 -112.00113 1133 ft 3 kts 96°
2026-05-04 02:01 33.43282 -112.00077 1134 ft 6 kts 98°
2026-05-04 02:02 33.43275 -112.00021 1137 ft 8 kts 96°
2026-05-04 02:02 33.43270 -111.99955 1133 ft 9 kts 92°
2026-05-04 02:02 33.43268 -111.99875 1133 ft 10 kts 86°
2026-05-04 02:02 33.43277 -111.99781 1133 ft 12 kts 90°
2026-05-04 02:03 33.43277 -111.99670 1133 ft 14 kts 88°
2026-05-04 02:03 33.43281 -111.99541 1133 ft 17 kts 88°
2026-05-04 02:03 33.43284 -111.99393 1136 ft 19 kts 91°
2026-05-04 02:03 33.43280 -111.99369 1133 ft 0 kts 118°
2026-05-04 02:04 33.43279 -111.99366 1133 ft 0 kts 126°
2026-05-04 02:04 33.43273 -111.99362 1137 ft 2 kts 147°
2026-05-04 02:04 33.43244 -111.99351 1135 ft 7 kts 173°
2026-05-04 02:04 33.43178 -111.99347 1139 ft 11 kts 178°
2026-05-04 02:05 33.43112 -111.99384 1139 ft 12 kts 249°
2026-05-04 02:05 33.43105 -111.99446 1137 ft 0 kts 270°
2026-05-04 02:05 33.43105 -111.99448 1137 ft 1 kts 270°
2026-05-04 02:06 33.43105 -111.99484 1137 ft 10 kts 270°
2026-05-04 02:06 33.43107 -111.99767 1137 ft 60 kts 270°
2026-05-04 02:06 33.43103 -112.00448 1135 ft 102 kts 269°
2026-05-04 02:06 33.43096 -112.01434 1225 ft 125 kts 268°
2026-05-04 02:07 33.43096 -112.02459 1507 ft 132 kts 268°
2026-05-04 02:07 33.43098 -112.03539 1891 ft 128 kts 266°
2026-05-04 02:07 33.43089 -112.04661 2218 ft 142 kts 266°
2026-05-04 02:07 33.43147 -112.05809 2788 ft 133 kts 266°
2026-05-04 02:08 33.42997 -112.06905 3143 ft 134 kts 246°
2026-05-04 02:08 33.42660 -112.07973 3459 ft 144 kts 245°
2026-05-04 02:08 33.42286 -112.09146 3693 ft 158 kts 246°
2026-05-04 02:08 33.41882 -112.10434 3931 ft 173 kts 247°
2026-05-04 02:09 33.41450 -112.11834 4241 ft 187 kts 247°
2026-05-04 02:09 33.40977 -112.13371 4495 ft 207 kts 248°
2026-05-04 02:09 33.40463 -112.15048 5010 ft 223 kts 247°
2026-05-04 02:09 33.39904 -112.16871 5464 ft 242 kts 248°
2026-05-04 02:10 33.39333 -112.18793 5981 ft 259 kts 252°
2026-05-04 02:10 33.39295 -112.20990 6768 ft 268 kts 272°
2026-05-04 02:10 33.39582 -112.23262 7576 ft 274 kts 275°
2026-05-04 02:10 33.39913 -112.25524 8311 ft 280 kts 275°
2026-05-04 02:11 33.40256 -112.27841 9183 ft 287 kts 276°
2026-05-04 02:11 33.40610 -112.30209 10014 ft 291 kts 276°
2026-05-04 02:11 33.40968 -112.32616 10692 ft 300 kts 276°
2026-05-04 02:11 33.41338 -112.35131 11187 ft 314 kts 276°
2026-05-04 02:12 33.41724 -112.37748 11784 ft 321 kts 276°
2026-05-04 02:12 33.42115 -112.40381 12593 ft 322 kts 276°
2026-05-04 02:12 33.42505 -112.43023 13355 ft 323 kts 276°
2026-05-04 02:12 33.42899 -112.45685 14051 ft 325 kts 276°
2026-05-04 02:13 33.43293 -112.48346 14736 ft 325 kts 276°
2026-05-04 02:13 33.43685 -112.51009 15446 ft 325 kts 276°
2026-05-04 02:13 33.44077 -112.53675 16185 ft 325 kts 276°
2026-05-04 02:13 33.44470 -112.56354 16847 ft 328 kts 276°
2026-05-04 02:14 33.44862 -112.59036 17564 ft 327 kts 276°
2026-05-04 02:14 33.45054 -112.61752 18202 ft 326 kts 269°
2026-05-04 02:14 33.45099 -112.64470 18791 ft 327 kts 268°
2026-05-04 02:14 33.45130 -112.67196 19374 ft 329 kts 268°
2026-05-04 02:15 33.45162 -112.69938 19973 ft 329 kts 268°
2026-05-04 02:15 33.45194 -112.72687 20538 ft 331 kts 268°
2026-05-04 02:15 33.45227 -112.75445 21105 ft 333 kts 268°
2026-05-04 02:15 33.45262 -112.78218 21684 ft 334 kts 269°
2026-05-04 02:16 33.45720 -112.80962 22221 ft 341 kts 284°
2026-05-04 02:16 33.46568 -112.83630 22771 ft 344 kts 288°
2026-05-04 02:16 33.47488 -112.86288 23327 ft 346 kts 288°
2026-05-04 02:16 33.48420 -112.88947 23838 ft 345 kts 288°
2026-05-04 02:17 33.49350 -112.91602 24261 ft 348 kts 288°
2026-05-04 02:17 33.50273 -112.94237 24727 ft 348 kts 288°
2026-05-04 02:17 33.51221 -112.96948 25168 ft 348 kts 288°
2026-05-04 02:17 33.52158 -112.99626 25600 ft 349 kts 288°
2026-05-04 02:18 33.53084 -113.02278 26013 ft 350 kts 288°
2026-05-04 02:18 33.54035 -113.05005 26418 ft 351 kts 287°
2026-05-04 02:18 33.54966 -113.07677 26669 ft 354 kts 287°
2026-05-04 02:18 33.55910 -113.10386 27196 ft 352 kts 287°
2026-05-04 02:19 33.56858 -113.13112 27470 ft 356 kts 287°
2026-05-04 02:19 33.57809 -113.15845 27889 ft 355 kts 287°
2026-05-04 02:19 33.58763 -113.18590 28287 ft 356 kts 287°
2026-05-04 02:19 33.59716 -113.21337 28640 ft 357 kts 287°
2026-05-04 02:20 33.60671 -113.24090 28991 ft 359 kts 287°
2026-05-04 02:20 33.61630 -113.26858 29347 ft 359 kts 287°
2026-05-04 02:20 33.62588 -113.29625 29671 ft 360 kts 287°
2026-05-04 02:20 33.63550 -113.32407 29985 ft 361 kts 287°
2026-05-04 02:21 33.64512 -113.35189 30291 ft 361 kts 287°
2026-05-04 02:21 33.65472 -113.37966 30595 ft 360 kts 287°
2026-05-04 02:21 33.66427 -113.40735 30877 ft 359 kts 287°
2026-05-04 02:21 33.67383 -113.43507 31143 ft 359 kts 287°
2026-05-04 02:22 33.68335 -113.46272 31384 ft 358 kts 286°
2026-05-04 02:22 33.69286 -113.49034 31611 ft 358 kts 286°
2026-05-04 02:22 33.70236 -113.51798 31808 ft 358 kts 286°
2026-05-04 02:22 33.71186 -113.54563 31998 ft 358 kts 286°
2026-05-04 02:23 33.73093 -113.60128 32083 ft 363 kts 286°
2026-05-04 02:23 33.75006 -113.65710 32029 ft 355 kts 286°
2026-05-04 02:24 33.76879 -113.71185 31985 ft 357 kts 286°
2026-05-04 02:24 33.78778 -113.76756 31918 ft 360 kts 286°
2026-05-04 02:25 33.80657 -113.82264 31857 ft 354 kts 286°
2026-05-04 02:25 33.82538 -113.87797 31789 ft 360 kts 286°
2026-05-04 02:26 33.84421 -113.93334 31757 ft 355 kts 285°
2026-05-04 02:26 33.86290 -113.98845 31754 ft 358 kts 285°
2026-05-04 02:27 33.88172 -114.04405 31742 ft 357 kts 285°
2026-05-04 02:27 33.90041 -114.09935 31744 ft 358 kts 285°
2026-05-04 02:28 33.91273 -114.15668 31738 ft 352 kts 277°
2026-05-04 02:28 33.92246 -114.21416 31735 ft 351 kts 277°
2026-05-04 02:29 33.93221 -114.27196 31727 ft 352 kts 277°
2026-05-04 02:29 33.94193 -114.32957 31730 ft 351 kts 277°
2026-05-04 02:30 33.95164 -114.38727 31723 ft 352 kts 277°
2026-05-04 02:30 33.96134 -114.44500 31724 ft 351 kts 277°
2026-05-04 02:31 33.97103 -114.50282 31721 ft 353 kts 277°
2026-05-04 02:31 33.98070 -114.56067 31720 ft 352 kts 276°
2026-05-04 02:32 33.99034 -114.61853 31719 ft 352 kts 276°
2026-05-04 02:32 33.99996 -114.67643 31717 ft 352 kts 276°
2026-05-04 02:33 34.00948 -114.73392 31723 ft 352 kts 276°
2026-05-04 02:33 34.01904 -114.79175 31725 ft 351 kts 276°
2026-05-04 02:34 34.02854 -114.84950 31728 ft 351 kts 276°
2026-05-04 02:34 34.03802 -114.90721 31727 ft 351 kts 276°
2026-05-04 02:35 34.04746 -114.96489 31732 ft 351 kts 276°
2026-05-04 02:35 34.05686 -115.02251 31732 ft 350 kts 276°
2026-05-04 02:36 34.06472 -115.07063 31734 ft 350 kts 276°
2026-05-04 02:36 34.07403 -115.12788 31734 ft 350 kts 276°
2026-05-04 02:37 34.08335 -115.18537 31740 ft 349 kts 276°
2026-05-04 02:37 34.09266 -115.24293 31738 ft 350 kts 276°
2026-05-04 02:38 34.10204 -115.30120 31741 ft 358 kts 276°
2026-05-04 02:38 34.11158 -115.36063 31746 ft 363 kts 276°
2026-05-04 02:39 34.12123 -115.42089 31746 ft 367 kts 276°
2026-05-04 02:39 34.13094 -115.48167 31750 ft 371 kts 276°
2026-05-04 02:40 34.14068 -115.54284 31751 ft 369 kts 276°
2026-05-04 02:40 34.15027 -115.60320 31755 ft 367 kts 276°
2026-05-04 02:41 34.15985 -115.66388 31762 ft 369 kts 276°
2026-05-04 02:41 34.16043 -115.72461 31773 ft 360 kts 263°
2026-05-04 02:42 34.15478 -115.78457 31789 ft 360 kts 262°
2026-05-04 02:42 34.14893 -115.84475 31802 ft 361 kts 262°
2026-05-04 02:43 34.14309 -115.90471 31824 ft 359 kts 262°
2026-05-04 02:43 34.13724 -115.96455 31841 ft 359 kts 262°
2026-05-04 02:44 34.13140 -116.02414 31857 ft 361 kts 262°
2026-05-04 02:44 34.12549 -116.08450 31861 ft 359 kts 262°
2026-05-04 02:45 34.11964 -116.14382 31858 ft 359 kts 262°
2026-05-04 02:45 34.11370 -116.20368 31856 ft 358 kts 262°
2026-05-04 02:46 34.10780 -116.26312 31846 ft 359 kts 262°
2026-05-04 02:46 34.10169 -116.32329 31556 ft 366 kts 261°
2026-05-04 02:47 34.09841 -116.35408 31054 ft 373 kts 261°
2026-05-04 02:47 34.09510 -116.38500 30570 ft 369 kts 261°
2026-05-04 02:47 34.09180 -116.41577 30091 ft 372 kts 261°
2026-05-04 02:47 34.08841 -116.44717 29574 ft 384 kts 261°
2026-05-04 02:48 34.08496 -116.47925 29074 ft 384 kts 261°
2026-05-04 02:48 34.08156 -116.51082 28616 ft 375 kts 261°
2026-05-04 02:48 34.07818 -116.54206 28147 ft 378 kts 261°
2026-05-04 02:48 34.07476 -116.57359 27667 ft 381 kts 261°
2026-05-04 02:49 34.07150 -116.60506 27202 ft 373 kts 262°
2026-05-04 02:49 34.06866 -116.63570 26755 ft 362 kts 262°
2026-05-04 02:49 34.06594 -116.66550 26310 ft 353 kts 262°
2026-05-04 02:49 34.06327 -116.69464 25879 ft 346 kts 262°
2026-05-04 02:50 34.06062 -116.72332 25456 ft 343 kts 262°
2026-05-04 02:50 34.05796 -116.75201 25065 ft 347 kts 262°
2026-05-04 02:50 34.05530 -116.78076 25000 ft 342 kts 262°
2026-05-04 02:50 34.05264 -116.80924 25032 ft 343 kts 262°
2026-05-04 02:51 34.05449 -116.83825 25082 ft 354 kts 280°
2026-05-04 02:51 34.06369 -116.86603 25079 ft 357 kts 289°
2026-05-04 02:51 34.07170 -116.89374 24467 ft 347 kts 275°
2026-05-04 02:51 34.07203 -116.92250 23764 ft 342 kts 259°
2026-05-04 02:52 34.06463 -116.94963 23078 ft 342 kts 243°
2026-05-04 02:52 34.05333 -116.97469 22445 ft 339 kts 242°
2026-05-04 02:52 34.04167 -116.99948 21786 ft 338 kts 242°
2026-05-04 02:52 34.03014 -117.02370 21411 ft 329 kts 241°
2026-05-04 02:53 34.02181 -117.04909 21023 ft 328 kts 258°
2026-05-04 02:53 34.01999 -117.06473 20780 ft 330 kts 261°
2026-05-04 02:53 34.01872 -117.08045 20507 ft 324 kts 262°
2026-05-04 02:53 34.01733 -117.09593 20136 ft 318 kts 263°
2026-05-04 02:54 34.01640 -117.10494 19855 ft 327 kts 260°
2026-05-04 02:55 34.01109 -117.16008 19286 ft 327 kts 260°
2026-05-04 02:55 34.00897 -117.17854 18978 ft 322 kts 259°
2026-05-04 02:55 34.00663 -117.19855 18662 ft 317 kts 259°
2026-05-04 02:56 34.00487 -117.21357 18428 ft 316 kts 259°
2026-05-04 02:56 34.00209 -117.23700 18018 ft 318 kts 259°
2026-05-04 02:56 33.99896 -117.26335 17602 ft 317 kts 259°
2026-05-04 02:56 33.99583 -117.28963 17177 ft 318 kts 259°
2026-05-04 02:57 33.99266 -117.31614 16768 ft 320 kts 259°
2026-05-04 02:57 33.98956 -117.34266 16349 ft 318 kts 259°
2026-05-04 02:57 33.98648 -117.36898 15935 ft 319 kts 259°
2026-05-04 02:57 33.98336 -117.39551 15524 ft 320 kts 259°
2026-05-04 02:58 33.98024 -117.42207 15089 ft 321 kts 259°
2026-05-04 02:58 33.97711 -117.44863 14653 ft 320 kts 259°
2026-05-04 02:58 33.97403 -117.47529 14225 ft 322 kts 261°
2026-05-04 02:58 33.97543 -117.50217 13799 ft 321 kts 275°
2026-05-04 02:59 33.97959 -117.52835 13364 ft 316 kts 277°
2026-05-04 02:59 33.98412 -117.55411 12987 ft 314 kts 278°
2026-05-04 02:59 33.98868 -117.57983 12590 ft 314 kts 278°
2026-05-04 02:59 33.99321 -117.60544 12194 ft 311 kts 278°
2026-05-04 03:00 33.99771 -117.63082 11800 ft 307 kts 278°
2026-05-04 03:00 34.00210 -117.65565 11437 ft 299 kts 278°
2026-05-04 03:00 34.00560 -117.67938 11056 ft 289 kts 269°
2026-05-04 03:00 34.00464 -117.70310 10711 ft 279 kts 262°
2026-05-04 03:01 34.00306 -117.72132 10433 ft 269 kts 260°
2026-05-04 03:01 34.00248 -117.72764 10344 ft 270 kts 261°
2026-05-04 03:01 34.00026 -117.75063 9987 ft 278 kts 261°
2026-05-04 03:01 33.99804 -117.77350 9613 ft 273 kts 261°
2026-05-04 03:02 33.99582 -117.79620 9276 ft 274 kts 261°
2026-05-04 03:02 33.99358 -117.81892 8921 ft 272 kts 261°
2026-05-04 03:02 33.99137 -117.84158 8583 ft 273 kts 261°
2026-05-04 03:02 33.98919 -117.86393 8233 ft 272 kts 262°
2026-05-04 03:03 33.98698 -117.88656 7890 ft 270 kts 262°
2026-05-04 03:03 33.98482 -117.90875 7553 ft 264 kts 262°
2026-05-04 03:03 33.98359 -117.92135 7362 ft 260 kts 262°
2026-05-04 03:03 33.98148 -117.94284 7031 ft 255 kts 262°
2026-05-04 03:04 33.97942 -117.96370 6717 ft 248 kts 262°
2026-05-04 03:04 33.97740 -117.98424 6405 ft 244 kts 262°
2026-05-04 03:04 33.97540 -118.00443 6079 ft 241 kts 262°
2026-05-04 03:04 33.97343 -118.02432 5770 ft 237 kts 263°
2026-05-04 03:05 33.97150 -118.04380 5473 ft 231 kts 262°
2026-05-04 03:05 33.96961 -118.06282 5196 ft 227 kts 262°
2026-05-04 03:05 33.96789 -118.08150 4927 ft 225 kts 264°
2026-05-04 03:05 33.96650 -118.10009 4574 ft 226 kts 263°
2026-05-04 03:06 33.96475 -118.11851 4286 ft 214 kts 262°
2026-05-04 03:06 33.96288 -118.13533 4046 ft 195 kts 261°
2026-05-04 03:06 33.96092 -118.15106 3791 ft 187 kts 260°
2026-05-04 03:06 33.95902 -118.16641 3637 ft 182 kts 264°
2026-05-04 03:07 33.95783 -118.18166 3448 ft 184 kts 263°
2026-05-04 03:07 33.95646 -118.19679 3213 ft 180 kts 263°
2026-05-04 03:07 33.95503 -118.21165 2965 ft 177 kts 263°
2026-05-04 03:07 33.95358 -118.22640 2724 ft 177 kts 262°
2026-05-04 03:08 33.95209 -118.24093 2488 ft 174 kts 262°
2026-05-04 03:08 33.95054 -118.25547 2253 ft 176 kts 262°
2026-05-04 03:08 33.94895 -118.26996 2002 ft 172 kts 262°
2026-05-04 03:08 33.94741 -118.28402 1770 ft 167 kts 263°
2026-05-04 03:09 33.94603 -118.29756 1551 ft 157 kts 263°
2026-05-04 03:09 33.94476 -118.31006 1338 ft 144 kts 263°
2026-05-04 03:09 33.94355 -118.32155 1137 ft 133 kts 264°
2026-05-04 03:09 33.94249 -118.33235 968 ft 129 kts 264°
2026-05-04 03:10 33.94143 -118.34311 798 ft 130 kts 263°
2026-05-04 03:10 33.94027 -118.35377 622 ft 128 kts 263°
2026-05-04 03:10 33.93920 -118.36451 414 ft 130 kts 262°
2026-05-04 03:10 33.93798 -118.37506 325 ft 127 kts 262°
2026-05-04 03:11 33.93694 -118.38576 164 ft 129 kts 265°
2026-05-04 03:11 33.93610 -118.39540 114 ft 96 kts 264°
2026-05-04 03:11 33.93538 -118.40204 122 ft 62 kts 263°
2026-05-04 03:11 33.93591 -118.40629 127 ft 42 kts 287°
2026-05-04 03:12 33.93597 -118.40808 127 ft 7 kts 286°
2026-05-04 03:12 33.93617 -118.40857 128 ft 7 kts 306°
2026-05-04 03:12 33.93684 -118.40903 115 ft 13 kts 355°
2026-05-04 03:12 33.93727 -118.40908 117 ft 1 kts 354°
2026-05-04 03:13 33.93746 -118.40910 122 ft 8 kts 355°
2026-05-04 03:13 33.93732 -118.40908 118 ft 5 kts 355°
2026-05-04 03:13 33.93750 -118.40910 124 ft 6 kts 355°
2026-05-04 03:13 33.93800 -118.40915 139 ft 13 kts 355°
2026-05-04 03:14 33.93913 -118.40861 136 ft 19 kts 51°
2026-05-04 03:14 33.93973 -118.40740 135 ft 11 kts 77°
2026-05-04 03:14 33.93980 -118.40724 135 ft 0 kts 66°